Regional Weather Roundup
Issued by NWS Sterling, VA

Home | Current Version | Previous Version | Graphics & Text | Print | Product List | Glossary On
Versions: 1 2 3 4 5 6 7 8 9 10 11 12 13 14 15 16 17 18 19 20 21 22 23 24 25 26 27 28 29 30 31 32 33 34 35 36 37 38 39 40 41 42 43 44 45 46 47 48 49 50
000
ASUS41 KLWX 050410
RWRLWX

REGIONAL WEATHER ROUNDUP
NATIONAL WEATHER SERVICE BALTIMORE MD/WASHINGTON DC
1200 AM EDT TUE MAY 05 2015

Note: "FAIR" indicates few or no clouds below 12,000 feet
with no significant weather and/or obstructions to visibility.
 TC=TEMPERATURE CELSIUS

 * =Non NWS site. Station does not report precipitation (e.g. rain,
    snow, etc.), thunder, or fog.

DCZ001-MDZ009-015-VAZ040>042-051-053>054-050500-
WASHINGTON METRO

CITY           SKY/WX    TMP DP  RH WIND       PRES   REMARKS
WASHINGTON NAT MOCLDY    71  58  63 S9        30.20R
DULLES         PTCLDY    69  53  56 S9        30.20R
ANDREWS AFB    CLEAR     69  53  55 S13       30.20R
FT BELVOIR     CLEAR     68  54  61 SE2       30.20S
QUANTICO       CLEAR     68  58  70 S8        30.22R
COLLEGE PARK*  CLEAR     72  52  49 S3        30.20R
LEESBURG*      CLEAR     70  55  60 S6        30.20S
MANASSAS*      CLEAR     70  55  60 S5        30.20R
GAITHERSBURG*  CLEAR     72  50  46 S5        30.24R

$$

MDZ006>007-011-014-050500-
BALTIMORE METRO

CITY           SKY/WX    TMP DP  RH WIND       PRES   REMARKS
BWI AIRPORT    CLEAR     68  52  56 CALM      30.19R
MD SCIENCE CTR   N/A     69  53  56 MISG      30.20R
MARTIN STATE   CLEAR     64  55  72 SE3       30.21R
ANNAPOLIS      CLEAR     63  55  75 S5        30.20R
FORT MEADE*    CLEAR     59  54  82 CALM      30.22R

$$

MDZ012-015-019>023-050500-
MARYLAND EASTERN SHORE

CITY           SKY/WX    TMP DP  RH WIND       PRES   REMARKS
OCEAN CITY     CLEAR     63  53  70 SW10      30.26S
SALISBURY      CLEAR     62  47  57 S7        30.25R
BAY BRIDGE AP*   N/A    N/A N/A N/A S8        30.20S
CAMBRIDGE*     CLEAR     66  54  63 S7        30.23S
EASTON*        CLEAR     68  55  62 S8        30.25S

$$

MDZ017>025-050500-
SOUTHERN MARYLAND

CITY           SKY/WX    TMP DP  RH WIND       PRES   REMARKS
PATUXENT RIVER CLEAR     68  53  58 SW10      30.22S
ST INIGOES     CLEAR     69  53  56 S8        30.23R
LEONARDTOWN*   CLEAR     68  50  52 SW7       30.24S

$$

MDZ003>005-050500-
NORTH CENTRAL MARYLAND

CITY           SKY/WX    TMP DP  RH WIND       PRES   REMARKS
FREDERICK*     CLEAR     64  48  55 CALM      30.20S
HAGERSTOWN APT PTCLDY    70  50  49 S6        30.17R
WESTMINSTER*   CLEAR     70  55  60 S7        30.19S

$$

MDZ501>502-050500-
WESTERN MARYLAND

CITY           SKY/WX    TMP DP  RH WIND       PRES   REMARKS
OAKLAND*       PTCLDY    61  52  72 NW3       30.29S
CUMBERLAND*    PTCLDY    64  48  55 N5        30.24R

$$

VAZ025>031-050500-
SHENANDOAH VALLEY

CITY           SKY/WX    TMP DP  RH WIND       PRES   REMARKS
WINCHESTER*    CLEAR     66  45  45 S5        30.19S
FRONT ROYAL*   FAIR      64  52  63 S7        30.19S
LURAY*         FAIR      68  54  60 S7        30.22R
NEW MARKET*    FAIR      64  53  68 CALM      30.21R
STAUNTON*      FAIR      60  52  76 CALM      30.26R
WAYNESBORO*    FAIR      66  50  55 CALM      30.25R

$$

WVZ021-048>050-054>055-050500-
EASTERN WEST VIRGINIA PANHANDLE

CITY           SKY/WX    TMP DP  RH WIND       PRES   REMARKS
MARTINSBURG    PTCLDY    66  51  58 SW3       30.18S
PETERSBURG*    MOCLDY    57  49  77 CALM      30.23R

$$

VAZ036>039-050-050500-
CENTRAL FOOTHILLS

CITY           SKY/WX    TMP DP  RH WIND       PRES   REMARKS
CHARLOTTESVILL PTCLDY    68  53  58 S9        30.22R
CULPEPER*      NOT AVBL
ORANGE*        CLEAR     64  54  68 CALM      30.24R
GORDONSVILLE*  FAIR      62  55  76 SW5       30.22R
WARRENTON*     FAIR      69  56  63 S6        30.21R

$$

VAZ055>057-050500-
NORTH AND CENTRAL PIEDMONT

CITY           SKY/WX    TMP DP  RH WIND       PRES   REMARKS
FREDERICKSBRG* CLEAR     72  55  55 S8        30.21R
STAFFORD*      CLEAR     67  50  54 S5        30.26R

$$

NCZ024-NYZ072-PAZ021-071-VAZ022-071-050500-
OTHER REGIONAL OBSERVATIONS

CITY           SKY/WX    TMP DP  RH WIND       PRES   REMARKS
NEW YORK CITY  CLEAR     72  42  34 SW12G20   30.19R
PHILADELPHIA   PTCLDY    70  49  47 S7        30.20R
PITTSBURGH     CLOUDY    64  60  87 CALM      30.22S
ROANOKE        CLEAR     67  51  56 CALM      30.28S
RICHMOND       CLEAR     69  51  52 S12       30.26R
RALEIGH        CLEAR     67  54  63 S10       30.32R

$$

ANZ530>537-050500-
MARINE OBSERVATIONS

STATION/POSITION TIME  TEMP    WIND        PRES
                       AIR SEA DIR/SP/G
                 (UTC) (F)     (DEG/KT/KT) (MB)
THOMAS PT LIGHT  0400   63 58  170/ 16/ 17 1023.2R
BALT KEY BRIDGE  0300   68     160/  8/ 11 1021.9R
COVE POINT       0300   65     200/ 10/ 11 1023.9S
LEWISETTA        0300   69 67              1023.3S
SOLOMONS ISLAND  0300      63                N/A
PINEY POINT      0300          210/ 10/ 12   N/A

$$



USA.gov is the U.S. government's official web portal to all federal, state and local government web resources and services.